Location: Chimay
(50.0486°N, 4.3171°E)
Time: 17:53:50
(UTC+00:00)

ATLAS 3B R/B - Pass Details

Date: 08 August 2020
Orbit: 1016 x 1179 km, 63.8° (Epoch: 22 September)

Event Time Altitude Azimuth Distance (km) Brightness Sun altitude
Exits shadow 22:21:15 35° 128° (SE) 1,589 3.1 -21.4°
Maximum altitude 22:21:52 36° 116° (ESE) 1,571 3.2 -21.5°
Drops below altitude 10° 22:27:46 10° 53° (NE) 2,830 5.1 -21.8°
Sets 22:30:37 0° 46° (NE) 3,802 5.9 -22.0°
